Terminal Aerodrome Forecast
Issued by NWS Mt. Holly, NJ

Home | Current Version | Previous Version | Text Only | Print | Product List | Glossary On
Versions: 1 2 3 4 5 6 7 8 9 10 11 12 13 14 15 16 17
991
FTUS41 KPHI 132331
TAFTTN
TAF
KTTN 132331Z 1400/1424 26009KT P6SM BKN080
     FM140300 26005KT 6SM -SN OVC070
     FM140400 24005KT 1/2SM SN OVC020
     FM140600 20005KT 2SM -SN OVC015
     FM141300 32009G19KT P6SM BKN035
     FM142200 31009KT P6SM SCT250=

USA.gov is the U.S. government's official web portal to all federal, state and local government web resources and services.